sat.trackr.live / text

‹ back to catalog

STARLINK-32236

NORAD 60418 · 2024-141W

PAYLOAD ACTIVE UNKNOWN

§ Identity

Operator
Country
US
Launch date
2024-08-10
Launch site
AFETR
Launch vehicle
Mass (kg)
RCS (m²)

Purposes: comms

External: N2YO · Heavens-Above · Gunter

§ Orbital elements

Epoch: 2026-05-25T00:31:42.958272Z

Period
93.85 min
Inclination
53.1618°
Eccentricity
0.0001378
Mean motion
15.34397091 rev/d
Perigee alt
461.8 km
Apogee alt
463.7 km
Semi-major
6,840.8 km
B*
1.3363e-4
RAAN
247.5930°
Arg perigee
66.6052°
Mean anomaly
293.5095°
Rev number
10,127

§ Raw data

STARLINK-322361 60418U 24141W   26145.02202498  .00004141  00000+0  13363-3 0  99942 60418  53.1618 247.5930 0001378  66.6052 293.5095 15.34397091101275

JSON: /api/v1/satellites/60418 · /tle

For live sub-satellite position, see the globe view (requires WebGL).

§ Visibility from observer

Set your observer location to see the next 7 days of passes ≥ 10°. The values pass through the URL so the page stays shareable.

No JS? Fill the form by hand. The geolocation button needs JavaScript.